| time (UTC) | temp F | wind direction | speed knots | gust knots | rain 1hr in | rain 24hr in | rain mn in | humidity % | barometer mb |
| 20260502184504 | 59 | 0 | 0.0 | 0.0 | 0.00 | 0.04 | 0.00 | 66 | 1011.5 |
| 20260502184002 | 60 | 0 | 0.0 | 0.0 | 0.00 | 0.04 | 0.00 | 67 | 1011.5 |
| 20260502183501 | 60 | 0 | 0.0 | 0.0 | 0.00 | 0.04 | 0.00 | 66 | 1011.4 |
| 20260502182502 | 60 | 0 | 0.0 | 0.0 | 0.00 | 0.04 | 0.00 | 64 | 1011.4 |
| 20260502182000 | 60 | 0 | 0.0 | 0.0 | 0.00 | 0.04 | 0.00 | 64 | 1011.4 |
| 20260502181504 | 60 | 0 | 0.0 | 0.0 | 0.00 | 0.04 | 0.00 | 64 | 1011.5 |
| 20260502181001 | 60 | 0 | 0.0 | 0.0 | 0.00 | 0.04 | 0.00 | 63 | 1011.5 |
| 20260502170500 | 62 | 173 | 1.7 | 3.5 | 0.00 | 0.04 | 0.00 | 59 | 1011.9 |
| 20260502164001 | 62 | 269 | 0.9 | 1.7 | 0.00 | 0.04 | 0.00 | 59 | 1012.0 |
| 20260502163501 | 62 | 269 | 0.9 | 1.7 | 0.00 | 0.04 | 0.00 | 58 | 1012.1 |
| 20260502163004 | 62 | 267 | 0.9 | 3.5 | 0.00 | 0.04 | 0.00 | 57 | 1012.0 |
| 20260502162502 | 62 | 258 | 0.9 | 3.5 | 0.00 | 0.04 | 0.00 | 58 | 1012.1 |
| 20260502161505 | 62 | 221 | 1.7 | 3.5 | 0.00 | 0.04 | 0.00 | 57 | 1012.3 |
| 20260502161000 | 63 | 255 | 1.7 | 3.5 | 0.00 | 0.04 | 0.00 | 56 | 1012.4 |
| 20260502160502 | 63 | 331 | 0.9 | 3.5 | 0.00 | 0.04 | 0.00 | 57 | 1012.4 |
| 20260502152001 | 67 | 0 | 0.0 | 3.5 | 0.00 | 0.04 | 0.00 | 52 | 1012.8 |
| 20260502151000 | 67 | 239 | 1.7 | 3.5 | 0.00 | 0.04 | 0.00 | 50 | 1012.9 |
| 20260502150501 | 67 | 268 | 2.6 | 4.3 | 0.00 | 0.04 | 0.00 | 48 | 1012.9 |
| 20260502130500 | 67 | 285 | 3.5 | 7.8 | 0.00 | 0.04 | 0.00 | 55 | 1014.3 |
| 20260502123500 | 66 | 156 | 0.9 | 5.2 | 0.00 | 0.04 | 0.00 | 57 | 1014.6 |
| 20260502123004 | 66 | 168 | 1.7 | 7.0 | 0.00 | 0.04 | 0.00 | 55 | 1014.7 |
| 20260502122501 | 66 | 164 | 2.6 | 7.0 | 0.00 | 0.04 | 0.00 | 56 | 1014.7 |
| 20260502121503 | 66 | 162 | 1.7 | 7.0 | 0.00 | 0.04 | 0.00 | 60 | 1014.9 |
| 20260502121000 | 64 | 306 | 0.9 | 7.0 | 0.00 | 0.04 | 0.00 | 62 | 1015.0 |
| 20260502120500 | 63 | 310 | 0.9 | 6.1 | 0.00 | 0.04 | 0.00 | 64 | 1015.1 |
| 20260502115502 | 63 | 243 | 1.7 | 5.2 | 0.00 | 0.04 | 0.00 | 61 | 1015.3 |
| 20260502115000 | 64 | 269 | 1.7 | 4.3 | 0.00 | 0.04 | 0.00 | 62 | 1015.4 |
| 20260502114504 | 63 | 281 | 2.6 | 5.2 | 0.00 | 0.04 | 0.00 | 65 | 1015.4 |
| 20260502114000 | 62 | 87 | 1.7 | 5.2 | 0.00 | 0.04 | 0.00 | 65 | 1015.4 |
| 20260502113501 | 63 | 109 | 2.6 | 5.2 | 0.00 | 0.04 | 0.00 | 62 | 1015.4 |
| 20260502113004 | 64 | 122 | 2.6 | 4.3 | 0.00 | 0.04 | 0.00 | 62 | 1015.4 |
| 20260502112000 | 63 | 346 | 1.7 | 4.3 | 0.00 | 0.04 | 0.00 | 64 | 1015.5 |
| 20260502111504 | 62 | 313 | 1.7 | 4.3 | 0.00 | 0.04 | 0.00 | 68 | 1015.5 |
| 20260502111001 | 62 | 332 | 1.7 | 6.1 | 0.00 | 0.04 | 0.00 | 66 | 1015.7 |
| 20260502110500 | 61 | 350 | 0.9 | 6.1 | 0.00 | 0.04 | 0.00 | 67 | 1015.7 |
| 20260502110004 | 61 | 0 | 0.0 | 2.6 | 0.00 | 0.04 | 0.00 | 70 | 1015.8 |
| 20260502105002 | 59 | 0 | 0.0 | 2.6 | 0.00 | 0.04 | 0.00 | 73 | 1016.1 |
| 20260502104504 | 58 | 0 | 0.0 | 2.6 | 0.00 | 0.04 | 0.00 | 75 | 1016.0 |
| 20260502104001 | 58 | 0 | 0.0 | 0.0 | 0.00 | 0.04 | 0.00 | 75 | 1016.0 |
| 20260502103500 | 57 | 0 | 0.0 | 2.6 | 0.00 | 0.04 | 0.00 | 75 | 1016.0 |
| 20260502102500 | 57 | 160 | 1.7 | 4.3 | 0.00 | 0.04 | 0.00 | 77 | 1016.0 |
| 20260502102002 | 57 | 162 | 1.7 | 4.3 | 0.00 | 0.04 | 0.00 | 76 | 1016.1 |
| 20260502101503 | 57 | 199 | 0.9 | 4.3 | 0.00 | 0.04 | 0.00 | 77 | 1016.2 |
| 20260502100500 | 57 | 179 | 0.9 | 6.1 | 0.00 | 0.04 | 0.00 | 77 | 1016.3 |
| 20260502091505 | 55 | 0 | 0.0 | 1.7 | 0.00 | 0.04 | 0.00 | 82 | 1016.4 |
| 20260502091001 | 55 | 0 | 0.0 | 0.9 | 0.00 | 0.04 | 0.00 | 80 | 1016.4 |
| 20260502090501 | 55 | 0 | 0.0 | 0.9 | 0.00 | 0.04 | 0.00 | 81 | 1016.5 |
| 20260502071504 | 50 | 0 | 0.0 | 0.9 | 0.00 | 0.04 | 0.00 | 90 | 1016.7 |
| 20260502071000 | 50 | 0 | 0.0 | 0.0 | 0.00 | 0.04 | 0.00 | 90 | 1016.8 |
| 20260502070500 | 50 | 0 | 0.0 | 0.0 | 0.00 | 0.04 | 0.00 | 90 | 1016.8 |
| 20260502065501 | 49 | 0 | 0.0 | 1.7 | 0.00 | 0.04 | 0.00 | 90 | 1016.7 |
| 20260502065000 | 49 | 0 | 0.0 | 1.7 | 0.00 | 0.04 | 0.00 | 90 | 1016.7 |
| 20260502063459 | 49 | 176 | 0.9 | 3.5 | 0.00 | 0.04 | 0.00 | 90 | 1016.6 |
| 20260502063003 | 49 | 173 | 1.7 | 3.5 | 0.00 | 0.04 | 0.00 | 90 | 1016.7 |
| 20260502062000 | 48 | 185 | 1.7 | 3.5 | 0.00 | 0.04 | 0.00 | 90 | 1016.6 |
| 20260502061001 | 48 | 0 | 0.0 | 3.5 | 0.00 | 0.04 | 0.00 | 90 | 1016.5 |
| 20260502060501 | 48 | 0 | 0.0 | 0.0 | 0.00 | 0.04 | 0.00 | 90 | 1016.6 |
| 20260502060003 | 48 | 0 | 0.0 | 2.6 | 0.00 | 0.04 | 0.00 | 90 | 1016.5 |
| 20260502055501 | 48 | 147 | 0.9 | 2.6 | 0.00 | 0.04 | 0.00 | 90 | 1016.5 |
| 20260502055001 | 48 | 148 | 0.9 | 2.6 | 0.00 | 0.04 | 0.00 | 90 | 1016.5 |
| 20260502054503 | 48 | 155 | 0.9 | 3.5 | 0.00 | 0.04 | 0.00 | 90 | 1016.4 |
| 20260502053501 | 47 | 141 | 0.9 | 2.6 | 0.00 | 0.04 | 0.00 | 90 | 1016.5 |
| 20260502053003 | 47 | 144 | 0.9 | 2.6 | 0.00 | 0.04 | 0.00 | 90 | 1016.5 |
| 20260502052501 | 47 | 143 | 1.7 | 3.5 | 0.00 | 0.04 | 0.00 | 90 | 1016.5 |
| 20260502051503 | 47 | 141 | 1.7 | 3.5 | 0.00 | 0.04 | 0.00 | 90 | 1016.6 |
| 20260502051000 | 47 | 143 | 1.7 | 3.5 | 0.00 | 0.04 | 0.00 | 90 | 1016.6 |
| 20260502050003 | 47 | 143 | 0.9 | 3.5 | 0.00 | 0.04 | 0.00 | 90 | 1016.6 |
| 20260502044503 | 47 | 136 | 1.7 | 3.5 | 0.00 | 0.04 | 0.00 | 90 | 1016.6 |
| 20260502044001 | 47 | 144 | 0.9 | 2.6 | 0.00 | 0.04 | 0.00 | 90 | 1016.5 |
| 20260502043500 | 47 | 0 | 0.0 | 2.6 | 0.00 | 0.04 | 0.00 | 90 | 1016.6 |
| 20260502043004 | 47 | 139 | 0.9 | 2.6 | 0.00 | 0.04 | 0.00 | 90 | 1016.6 |
| 20260502042000 | 47 | 138 | 1.7 | 3.5 | 0.00 | 0.04 | 0.00 | 90 | 1016.6 |
| 20260502041502 | 47 | 139 | 1.7 | 3.5 | 0.00 | 0.04 | 0.00 | 90 | 1016.6 |
| 20260502041002 | 47 | 147 | 1.7 | 3.5 | 0.00 | 0.04 | 0.00 | 90 | 1016.7 |
| 20260502040500 | 47 | 162 | 1.7 | 2.6 | 0.00 | 0.04 | 0.00 | 90 | 1016.6 |
| 20260502040004 | 47 | 175 | 1.7 | 3.5 | 0.00 | 0.04 | 0.00 | 90 | 1016.7 |
| 20260502035500 | 47 | 175 | 1.7 | 3.5 | 0.00 | 0.04 | 0.00 | 90 | 1016.8 |
| 20260502035000 | 48 | 153 | 2.6 | 5.2 | 0.00 | 0.04 | 0.00 | 90 | 1016.7 |
| 20260502034504 | 48 | 141 | 3.5 | 5.2 | 0.00 | 0.04 | 0.00 | 90 | 1016.7 |
| 20260502034001 | 48 | 143 | 2.6 | 5.2 | 0.00 | 0.04 | 0.00 | 90 | 1016.6 |
| 20260502033459 | 48 | 158 | 2.6 | 4.3 | 0.00 | 0.04 | 0.00 | 90 | 1016.7 |
| 20260502033003 | 48 | 159 | 2.6 | 4.3 | 0.00 | 0.04 | 0.00 | 90 | 1016.7 |
| 20260502032459 | 48 | 155 | 2.6 | 4.3 | 0.00 | 0.04 | 0.00 | 90 | 1016.8 |
| 20260502032000 | 48 | 157 | 2.6 | 4.3 | 0.00 | 0.04 | 0.00 | 90 | 1016.7 |
| 20260502031503 | 48 | 162 | 2.6 | 4.3 | 0.00 | 0.04 | 0.00 | 90 | 1016.7 |
| 20260502031002 | 48 | 169 | 1.7 | 4.3 | 0.00 | 0.04 | 0.00 | 90 | 1016.7 |
| 20260502030003 | 48 | 166 | 1.7 | 3.5 | 0.00 | 0.04 | 0.00 | 90 | 1016.7 |
| 20260502025459 | 48 | 161 | 1.7 | 3.5 | 0.00 | 0.04 | 0.00 | 90 | 1016.7 |
| 20260502025000 | 49 | 157 | 1.7 | 3.5 | 0.00 | 0.04 | 0.00 | 90 | 1016.7 |
| 20260502024503 | 49 | 160 | 1.7 | 4.3 | 0.00 | 0.04 | 0.00 | 90 | 1016.7 |
| 20260502024000 | 49 | 167 | 2.6 | 4.3 | 0.00 | 0.04 | 0.00 | 90 | 1016.8 |
| 20260502023459 | 49 | 170 | 2.6 | 4.3 | 0.00 | 0.04 | 0.00 | 90 | 1016.8 |
| 20260502023004 | 49 | 177 | 2.6 | 5.2 | 0.00 | 0.04 | 0.00 | 90 | 1016.8 |
| 20260502022000 | 49 | 197 | 1.7 | 5.2 | 0.00 | 0.04 | 0.00 | 90 | 1016.9 |
| 20260502021502 | 49 | 202 | 1.7 | 5.2 | 0.00 | 0.04 | 0.00 | 90 | 1016.9 |
| 20260502021000 | 49 | 202 | 1.7 | 5.2 | 0.00 | 0.04 | 0.00 | 90 | 1016.9 |
| 20260502020459 | 49 | 208 | 0.9 | 5.2 | 0.00 | 0.04 | 0.00 | 90 | 1017.0 |
| 20260502020003 | 49 | 200 | 1.7 | 7.0 | 0.00 | 0.04 | 0.00 | 90 | 1016.9 |
| 20260502014502 | 50 | 224 | 0.9 | 3.5 | 0.00 | 0.04 | 0.00 | 90 | 1017.1 |
| 20260502014000 | 50 | 226 | 0.9 | 3.5 | 0.00 | 0.04 | 0.00 | 90 | 1017.1 |
| 20260502013459 | 51 | 228 | 0.9 | 3.5 | 0.00 | 0.04 | 0.00 | 90 | 1017.2 |
| 20260502013003 | 51 | 201 | 0.9 | 3.5 | 0.00 | 0.04 | 0.00 | 90 | 1017.2 |
| 20260502012500 | 51 | 189 | 0.9 | 3.5 | 0.00 | 0.04 | 0.00 | 90 | 1017.2 |
| 20260502012000 | 51 | 0 | 0.0 | 2.6 | 0.00 | 0.04 | 0.00 | 90 | 1017.2 |
| 20260502011502 | 51 | 236 | 0.9 | 4.3 | 0.00 | 0.04 | 0.00 | 89 | 1017.2 |
| 20260502011000 | 51 | 238 | 0.9 | 4.3 | 0.00 | 0.04 | 0.00 | 90 | 1017.3 |
| 20260502010500 | 51 | 0 | 0.0 | 1.7 | 0.00 | 0.04 | 0.00 | 90 | 1017.4 |
| 20260502010003 | 51 | 0 | 0.0 | 0.0 | 0.00 | 0.04 | 0.00 | 90 | 1017.5 |
| 20260502005501 | 51 | 0 | 0.0 | 1.7 | 0.00 | 0.04 | 0.00 | 90 | 1017.5 |
| 20260502004504 | 52 | 0 | 0.0 | 2.6 | 0.00 | 0.04 | 0.00 | 90 | 1017.6 |
| 20260502004000 | 52 | 0 | 0.0 | 2.6 | 0.00 | 0.04 | 0.00 | 89 | 1017.7 |
| 20260502003501 | 52 | 0 | 0.0 | 2.6 | 0.00 | 0.04 | 0.00 | 89 | 1017.8 |
| 20260502003002 | 52 | 0 | 0.0 | 2.6 | 0.00 | 0.04 | 0.00 | 89 | 1017.7 |
| 20260502002501 | 52 | 0 | 0.0 | 1.7 | 0.00 | 0.04 | 0.00 | 89 | 1017.7 |
| 20260502002001 | 52 | 0 | 0.0 | 1.7 | 0.00 | 0.04 | 0.00 | 90 | 1017.8 |
| 20260502001503 | 51 | 0 | 0.0 | 1.7 | 0.00 | 0.04 | 0.00 | 90 | 1017.8 |
| 20260502001000 | 51 | 0 | 0.0 | 1.7 | 0.00 | 0.04 | 0.00 | 90 | 1017.8 |
| 20260502000459 | 51 | 0 | 0.0 | 0.9 | 0.00 | 0.04 | 0.00 | 89 | 1017.9 |
| 20260502000003 | 51 | 169 | 0.9 | 2.6 | 0.00 | 0.04 | 0.00 | 89 | 1017.9 |
| 20260501235459 | 51 | 184 | 0.9 | 2.6 | 0.00 | 0.04 | 0.00 | 89 | 1017.9 |
| 20260501235000 | 51 | 0 | 0.0 | 2.6 | 0.00 | 0.04 | 0.00 | 90 | 1017.9 |
| 20260501234502 | 51 | 0 | 0.0 | 0.0 | 0.00 | 0.04 | 0.00 | 90 | 1017.9 |
| 20260501234001 | 51 | 0 | 0.0 | 0.0 | 0.00 | 0.04 | 0.00 | 89 | 1017.9 |
| 20260501233500 | 51 | 0 | 0.0 | 0.0 | 0.00 | 0.04 | 0.00 | 89 | 1017.9 |
| 20260501232501 | 51 | 0 | 0.0 | 1.7 | 0.00 | 0.04 | 0.00 | 89 | 1017.9 |
| 20260501231959 | 52 | 0 | 0.0 | 1.7 | 0.00 | 0.04 | 0.00 | 89 | 1018.0 |
| 20260501231503 | 52 | 0 | 0.0 | 1.7 | 0.00 | 0.04 | 0.00 | 89 | 1018.0 |
| 20260501231001 | 52 | 0 | 0.0 | 0.9 | 0.00 | 0.04 | 0.00 | 89 | 1018.0 |
| 20260501230501 | 52 | 0 | 0.0 | 0.9 | 0.00 | 0.04 | 0.00 | 89 | 1018.0 |
| 20260501230006 | 52 | 0 | 0.0 | 1.7 | 0.00 | 0.04 | 0.00 | 89 | 1018.0 |
| 20260501224959 | 53 | 202 | 0.9 | 1.7 | 0.00 | 0.04 | 0.04 | 89 | 1018.0 |
| 20260501224503 | 53 | 210 | 0.9 | 2.6 | 0.00 | 0.04 | 0.04 | 89 | 1018.1 |
| 20260501223959 | 53 | 226 | 0.9 | 2.6 | 0.00 | 0.04 | 0.04 | 89 | 1018.1 |
| 20260501223500 | 53 | 235 | 0.9 | 2.6 | 0.00 | 0.04 | 0.04 | 89 | 1018.0 |
| 20260501223002 | 53 | 234 | 0.9 | 2.6 | 0.00 | 0.04 | 0.04 | 89 | 1018.0 |
| 20260501222501 | 52 | 224 | 0.9 | 2.6 | 0.00 | 0.04 | 0.04 | 89 | 1018.0 |
| 20260501222000 | 52 | 0 | 0.0 | 2.6 | 0.00 | 0.04 | 0.04 | 89 | 1018.0 |
| 20260501221502 | 52 | 0 | 0.0 | 0.0 | 0.00 | 0.04 | 0.04 | 89 | 1018.0 |
| 20260501220959 | 52 | 0 | 0.0 | 0.0 | 0.00 | 0.04 | 0.04 | 89 | 1018.0 |
| 20260501220002 | 52 | 0 | 0.0 | 0.0 | 0.00 | 0.04 | 0.04 | 89 | 1018.0 |
| 20260501215501 | 53 | 0 | 0.0 | 0.0 | 0.00 | 0.04 | 0.04 | 89 | 1018.0 |
| 20260501215000 | 53 | 0 | 0.0 | 1.7 | 0.00 | 0.04 | 0.04 | 89 | 1018.0 |
| 20260501214502 | 53 | 0 | 0.0 | 1.7 | 0.00 | 0.04 | 0.04 | 89 | 1017.9 |
| 20260501214000 | 53 | 0 | 0.0 | 0.0 | 0.00 | 0.04 | 0.04 | 89 | 1018.0 |
| 20260501213459 | 53 | 0 | 0.0 | 0.0 | 0.00 | 0.04 | 0.04 | 89 | 1018.0 |
| 20260501213002 | 53 | 0 | 0.0 | 0.0 | 0.00 | 0.04 | 0.04 | 89 | 1018.1 |
| 20260501211959 | 54 | 0 | 0.0 | 0.0 | 0.00 | 0.04 | 0.04 | 89 | 1018.1 |
| 20260501211503 | 54 | 0 | 0.0 | 0.0 | 0.00 | 0.04 | 0.04 | 89 | 1018.1 |
| 20260501210959 | 54 | 0 | 0.0 | 0.0 | 0.00 | 0.04 | 0.04 | 89 | 1018.2 |
| 20260501210459 | 54 | 0 | 0.0 | 0.0 | 0.00 | 0.04 | 0.04 | 89 | 1018.2 |
| 20260501210004 | 54 | 0 | 0.0 | 0.0 | 0.00 | 0.04 | 0.04 | 89 | 1018.2 |
| 20260501205459 | 54 | 0 | 0.0 | 0.0 | 0.00 | 0.04 | 0.04 | 89 | 1018.2 |
| 20260501205000 | 54 | 0 | 0.0 | 0.0 | 0.00 | 0.04 | 0.04 | 89 | 1018.2 |
| 20260501204502 | 54 | 0 | 0.0 | 0.9 | 0.00 | 0.04 | 0.04 | 89 | 1018.2 |
| 20260501203959 | 54 | 0 | 0.0 | 0.9 | 0.00 | 0.04 | 0.04 | 89 | 1018.2 |
| 20260501203500 | 54 | 0 | 0.0 | 0.9 | 0.00 | 0.04 | 0.04 | 89 | 1018.1 |
| 20260501203003 | 54 | 0 | 0.0 | 0.0 | 0.01 | 0.04 | 0.04 | 89 | 1018.2 |
| 20260501202459 | 54 | 0 | 0.0 | 0.0 | 0.01 | 0.04 | 0.04 | 89 | 1018.2 |
| 20260501202000 | 54 | 0 | 0.0 | 3.5 | 0.01 | 0.04 | 0.04 | 89 | 1018.3 |
| 20260501201000 | 54 | 0 | 0.0 | 1.7 | 0.02 | 0.04 | 0.04 | 89 | 1018.2 |
| 20260501200500 | 54 | 333 | 0.9 | 3.5 | 0.03 | 0.04 | 0.04 | 89 | 1018.3 |
| 20260501200004 | 54 | 323 | 0.9 | 3.5 | 0.04 | 0.04 | 0.04 | 89 | 1018.3 |
| 20260501195459 | 54 | 0 | 0.0 | 2.6 | 0.04 | 0.04 | 0.04 | 89 | 1018.4 |
| 20260501194959 | 54 | 0 | 0.0 | 0.0 | 0.04 | 0.04 | 0.04 | 89 | 1018.3 |
| 20260501194502 | 54 | 0 | 0.0 | 0.0 | 0.04 | 0.04 | 0.04 | 89 | 1018.3 |
| 20260501194001 | 54 | 0 | 0.0 | 1.7 | 0.04 | 0.04 | 0.04 | 89 | 1018.3 |
| 20260501193459 | 54 | 297 | 0.9 | 2.6 | 0.04 | 0.04 | 0.04 | 89 | 1018.3 |
| 20260501193003 | 54 | 298 | 1.7 | 7.0 | 0.03 | 0.03 | 0.03 | 89 | 1018.2 |
| 20260501192500 | 54 | 300 | 3.5 | 7.0 | 0.03 | 0.03 | 0.03 | 88 | 1018.2 |
| 20260501191959 | 55 | 305 | 2.6 | 6.1 | 0.03 | 0.03 | 0.03 | 88 | 1018.2 |
| 20260501190959 | 55 | 296 | 3.5 | 7.8 | 0.02 | 0.02 | 0.02 | 88 | 1018.2 |
| 20260501190500 | 56 | 289 | 4.3 | 7.8 | 0.01 | 0.01 | 0.01 | 86 | 1018.2 |
| 20260501190003 | 56 | 282 | 3.5 | 7.8 | 0.00 | 0.00 | 0.00 | 85 | 1018.2 |
| 20260501185500 | 56 | 291 | 3.5 | 7.0 | 0.00 | 0.00 | 0.00 | 84 | 1018.2 |
| 20260501184959 | 57 | 298 | 3.5 | 7.0 | 0.00 | 0.00 | 0.00 | 82 | 1018.2 |